{"data":{"norad_id":63104,"epoch":"2026-05-25T00:35:55.624704Z","epoch_age_seconds":72767,"freshness":"FRESH","line1":"1 63104U 25039A   26145.02494936  .00131078  00000+0  10075-2 0  9992","line2":"2 63104  42.9976 136.4864 0001511 200.2819 159.7988 15.70875301 71625","mean_motion":15.70875301,"eccentricity":0.0001511,"inclination_deg":42.9976,"raan_deg":136.4864,"arg_perigee_deg":200.2819,"mean_anomaly_deg":159.7988,"bstar":0.0010075,"rev_number":7162,"period_min":91.668638438921,"perigee_km":355.37657893408,"apogee_km":357.41175425262,"semimajor_km":6734.5311665934,"source":"CELESTRAK","updated_at":"2026-05-25T13:38:19.881837Z"}}